Theta_e
345 346 346 345 345 345 344 344 344 345 343 342 340 341 343 343 344 341 338 344 344 344 344 343 343 343 338 334 331 326 326 325 325 325 333 329 328 326 326 325 325 325 325
345 344 346 346 345 345 346 346 346 346 346 345 345 344 343 343 342 344 343 343 344 344 344 344 343 343 342 339 335 336 332 335 332 328 326 326 334 329 328 328 328 327 327
342 342 343 343 345 346 346 347 346 346 347 346 346 345 345 344 343 341 342 343 344 344 344 344 344 344 343 340 336 335 337 337 338 338 337 332 328 329 332 328 330 331 331
340 342 343 345 345 346 344 345 347 347 347 346 346 346 345 345 344 343 342 343 343 345 345 345 345 344 344 340 336 337 338 338 339 338 338 339 338 330 329 333 329 331 333
342 342 345 343 345 344 344 345 345 345 344 346 347 348 347 347 346 347 345 345 344 345 344 345 346 346 345 346 344 340 340 340 340 339 337 336 337 337 338 332 332 331 332
346 346 345 347 347 347 344 345 347 348 344 348 348 348 348 347 347 347 347 347 346 346 347 347 346 346 346 347 348 346 346 344 342 343 343 340 336 336 335 335 337 338 334
344 346 347 346 345 348 349 348 348 349 345 346 348 347 346 347 348 347 348 348 347 349 347 346 347 347 348 347 347 347 346 345 346 346 346 345 344 340 336 335 334 334 336
347 346 347 347 344 347 348 346 348 346 347 349 349 347 347 346 345 347 347 348 347 346 348 348 348 348 348 349 349 349 349 349 348 347 347 348 346 345 343 340 336 334 334
347 342 347 348 347 347 348 344 348 348 347 347 349 350 348 347 346 346 347 347 347 346 349 350 349 347 345 348 347 349 349 349 350 347 349 349 349 347 344 344 342 337 333
337 345 346 348 349 349 348 349 349 350 349 347 347 347 349 350 348 348 347 346 346 347 346 347 348 342 347 347 347 348 343 344 346 346 345 349 349 349 347 345 344 343 340
343 346 347 347 347 348 349 350 350 350 350 349 349 349 350 348 348 349 349 347 346 346 346 346 346 343 342 342 342 340 343 346 346 345 346 347 346 349 349 348 345 344 343
346 345 350 348 347 350 347 347 348 349 351 351 351 348 348 348 349 349 350 349 347 345 347 346 346 346 346 345 343 343 345 345 344 342 341 344 341 346 350 348 345 344 344
347 344 347 349 350 350 350 350 349 349 349 350 350 350 350 350 350 349 349 348 348 347 347 347 347 346 346 347 347 346 346 343 340 341 338 339 345 347 349 349 347 346 343
343 345 347 347 347 345 347 350 349 348 347 348 348 349 348 348 346 347 347 349 348 346 346 346 345 347 346 346 344 345 345 342 339 342 341 340 344 345 344 347 348 346 345
347 346 345 341 328 323 323 327 336 342 343 343 345 346 347 346 346 345 346 348 348 348 347 347 347 347 348 347 346 346 346 345 344 342 341 343 343 346 345 345 345 346 344
325 318 315 315 316 317 317 317 318 319 323 332 337 339 340 341 342 342 344 345 346 347 347 347 347 347 347 346 345 345 344 345 344 340 341 340 341 344 346 346 345 345 345
316 317 318 320 322 323 324 324 324 324 324 324 325 327 329 331 333 336 340 344 344 345 345 344 344 345 346 346 346 345 344 344 344 344 340 344 343 342 344 345 345 345 345
315 317 320 324 327 327 328 329 328 328 327 327 327 327 327 327 330 334 336 338 342 342 342 343 342 341 342 343 344 345 346 344 344 344 344 342 343 347 345 342 341 342 342
318 321 323 326 326 326 326 326 325 326 325 324 324 323 324 325 323 322 323 326 334 338 338 339 340 339 338 340 342 344 345 346 345 343 344 344 342 342 343 344 344 340 341
318 324 324 326 326 325 323 323 323 324 325 325 326 329 330 330 330 328 327 333 334 333 334 335 337 336 336 336 337 339 341 341 341 341 343 344 343 345 345 344 345 345 343
319 323 325 327 327 325 323 325 326 326 326 328 329 331 331 332 332 332 332 331 331 332 333 334 333 335 336 336 338 339 338 337 337 337 337 339 342 343 344 345 345 341 343
319 322 325 326 326 326 325 324 324 324 325 326 327 329 330 330 331 331 332 332 332 332 332 332 331 332 333 335 338 338 338 338 338 337 337 335 342 343 342 344 344 344 344
320 324 326 326 326 326 325 324 323 322 322 323 324 327 327 328 328 329 330 331 331 332 331 331 331 333 333 335 335 335 338 336 335 332 332 334 334 336 338 341 342 342 343
319 323 326 326 326 326 325 324 320 318 316 317 322 324 327 328 327 327 329 330 330 330 331 331 332 332 332 332 334 336 337 337 335 335 336 336 336 337 338 340 341 341 341
316 320 325 326 325 325 325 323 321 319 314 310 317 321 322 323 325 326 328 329 330 330 331 333 333 334 334 334 334 334 334 334 335 336 336 335 335 335 335 332 334 335 338
320 324 324 323 322 323 323 324 321 318 309 307 311 314 318 321 324 327 327 328 328 329 330 331 332 332 332 332 333 333 333 334 333 334 334 333 332 330 330 330 333 333 330
Wind_Speed
7 8 6 7 7 8 8 9 9 9 10 11 12 14 14 14 14 13 15 13 13 13 13 14 14 14 16 16 16 16 16 15 15 14 13 13 12 11 11 11 11 11 10
5 5 8 8 7 8 7 8 8 10 13 14 15 17 17 17 16 15 15 13 15 16 17 15 15 12 12 16 18 18 19 17 17 17 16 15 15 14 13 12 13 13 13
3 5 7 7 7 7 6 7 8 10 11 13 15 16 16 17 19 21 20 18 16 17 13 11 12 12 12 13 19 18 19 19 19 18 18 18 18 18 16 15 14 14 14
3 3 3 5 4 4 4 4 6 8 9 9 9 9 10 12 14 17 19 19 17 16 16 15 13 15 12 13 16 17 17 19 20 20 20 19 20 20 20 19 17 16 15
5 5 3 4 6 7 7 3 4 6 7 7 8 9 11 13 15 17 18 18 20 19 17 13 14 17 15 14 11 14 16 16 18 19 19 20 20 21 21 22 22 20 19
7 6 6 5 8 7 8 9 7 8 10 7 10 11 11 13 14 17 18 18 17 20 20 19 16 14 18 17 17 16 14 14 17 17 18 20 20 21 21 22 23 23 22
9 9 10 9 8 9 9 12 11 10 8 9 13 11 12 12 11 10 15 15 15 16 15 19 18 20 20 23 20 18 28 21 18 18 18 18 19 21 22 22 22 24 24
10 11 10 11 12 9 9 9 10 11 12 10 12 12 10 8 7 3 5 10 12 14 14 15 16 18 22 22 23 26 25 20 19 18 20 19 20 20 21 23 22 22 24
12 15 15 13 12 11 8 11 11 13 14 13 11 10 6 4 10 7 5 8 12 10 10 14 16 17 17 22 25 25 22 20 21 24 25 22 22 21 23 21 22 22 22
6 6 13 16 17 14 10 9 11 13 15 12 11 12 13 16 13 13 13 14 17 12 10 10 17 15 17 21 20 21 20 23 21 22 27 25 25 23 22 24 22 23 22
11 11 12 12 11 8 9 12 13 15 14 14 13 13 14 14 14 15 21 14 15 15 14 15 12 16 15 18 16 16 20 22 21 21 22 28 24 26 23 23 23 23 23
12 8 8 8 9 10 11 11 11 13 14 15 15 13 14 14 15 14 17 20 19 15 14 13 13 12 13 14 18 20 17 18 19 24 23 24 28 24 26 22 22 24 24
8 10 13 10 11 13 14 14 12 12 12 12 13 12 11 12 14 16 17 19 19 19 16 15 13 15 15 15 17 16 15 16 15 18 19 23 22 22 22 22 21 23 24
13 18 17 17 20 21 18 17 15 15 15 14 14 15 14 14 14 14 15 16 20 20 21 20 15 13 13 14 13 14 13 16 21 18 15 22 20 21 21 21 22 22 25
14 17 19 20 21 20 19 17 16 16 16 16 16 15 15 15 14 14 14 14 14 18 25 21 15 11 10 12 11 15 16 17 16 17 20 17 22 22 20 18 20 23 25
15 16 16 15 15 15 15 14 14 14 15 16 17 17 17 17 17 15 14 13 13 14 20 22 21 20 17 17 15 17 16 16 14 13 13 13 17 22 18 17 18 20 22
11 10 9 9 9 9 9 9 9 9 9 10 13 15 16 17 17 16 16 13 12 13 17 23 21 18 17 17 16 17 18 17 17 13 18 18 16 16 19 19 21 23 21
10 9 8 7 7 9 8 8 8 9 9 9 10 11 13 14 15 15 15 15 15 13 15 19 19 17 17 15 15 17 16 17 19 19 20 19 18 19 20 21 25 23 24
9 8 8 7 8 9 9 10 10 10 10 8 8 8 8 8 8 10 12 13 15 17 16 18 20 18 17 16 15 15 14 15 16 18 19 21 21 21 20 21 23 20 24
8 9 7 7 8 11 12 12 8 6 7 6 6 6 6 7 8 7 5 5 8 11 12 13 16 19 19 19 19 18 17 16 15 15 17 17 17 18 20 21 23 24 28
9 9 10 10 10 10 6 5 5 4 4 4 5 5 5 5 6 6 7 8 9 11 11 13 15 15 15 16 17 17 19 19 19 18 18 15 16 18 19 22 23 24 25
7 4 2 5 5 5 6 6 7 7 6 7 6 6 6 6 6 7 9 10 12 13 14 16 17 18 18 18 16 16 17 17 19 15 14 17 16 16 17 17 21 24 24
5 3 4 4 4 6 5 6 9 10 11 10 9 9 8 9 10 11 10 9 9 10 11 12 13 14 16 16 18 18 14 12 13 12 15 17 13 14 14 16 18 20 20
6 8 7 6 8 7 7 7 9 9 12 12 11 11 11 12 13 12 9 7 7 7 7 8 9 11 13 14 15 16 15 14 14 10 9 13 10 10 8 8 10 13 17
8 7 9 9 9 8 9 7 10 12 13 12 10 11 13 13 12 9 8 7 6 7 8 8 6 5 9 10 11 11 13 15 14 8 9 10 10 13 11 8 8 10 11
5 6 9 11 9 8 10 11 13 15 15 11 9 9 11 10 7 7 8 8 8 7 4 3 5 8 11 12 12 11 7 6 9 4 7 10 8 10 10 7 5 10 13
Wind_Direction
244 223 213 200 195 209 206 221 229 231 229 228 226 230 238 234 236 237 234 254 246 243 252 249 248 245 242 243 249 246 239 236 237 235 234 235 234 235 235 236 233 237 251
245 226 221 214 219 227 219 225 239 251 255 250 247 245 244 240 243 240 232 238 242 243 250 250 253 253 253 246 245 249 248 249 249 246 243 244 243 242 241 241 242 240 236
198 223 235 227 226 245 245 245 258 265 265 260 257 255 260 253 247 244 241 240 248 244 244 250 250 250 262 258 245 246 250 248 250 252 248 244 245 249 245 246 246 245 246
155 178 220 248 231 244 269 262 263 275 276 268 269 263 258 249 249 247 245 247 254 254 257 256 262 257 252 253 250 248 247 246 249 251 250 248 242 244 248 245 246 249 250
193 186 207 225 228 255 258 244 245 267 272 276 274 262 256 255 252 254 257 254 253 254 254 255 257 257 250 248 247 249 248 248 249 251 250 248 246 245 245 244 246 248 247
238 225 224 220 242 255 241 258 260 272 271 269 287 279 266 261 259 256 255 256 255 255 257 254 246 247 246 244 249 251 245 245 247 249 251 250 247 247 246 245 244 246 247
241 235 233 244 241 248 260 264 260 275 279 282 288 284 279 274 269 277 261 261 258 259 261 255 248 245 245 249 250 254 255 248 254 254 251 251 253 250 248 246 245 244 243
264 253 249 244 239 244 255 260 266 270 279 281 294 300 310 278 276 250 271 275 276 266 257 258 249 259 250 251 252 250 258 259 259 268 257 256 255 251 250 249 247 246 242
259 264 247 251 255 238 250 255 272 267 282 275 276 276 295 277 313 296 311 268 294 290 272 260 257 262 267 256 260 258 259 260 257 259 257 252 253 252 251 250 250 247 248
228 246 245 252 262 254 261 264 271 268 273 270 277 279 276 281 292 305 300 293 290 295 285 280 255 266 270 272 267 261 258 264 271 260 268 261 258 250 247 247 247 248 246
240 263 255 234 262 274 283 286 277 270 276 283 276 277 278 281 282 288 297 304 295 295 286 277 267 240 248 281 264 267 267 268 270 278 273 256 260 253 246 247 246 248 248
249 251 263 254 271 284 286 292 286 279 274 275 276 277 277 281 291 289 291 299 301 299 293 283 278 273 268 274 270 273 271 278 262 283 273 253 260 257 248 242 246 249 250
266 280 285 281 287 288 284 277 276 275 279 277 277 273 274 280 285 289 293 300 299 294 296 292 287 282 281 279 283 275 266 259 277 288 247 252 252 253 252 250 248 251 252
247 246 262 274 284 288 284 278 276 276 276 275 273 278 281 284 286 293 294 294 301 299 291 293 289 294 286 277 280 280 270 266 267 276 287 251 242 249 250 253 251 253 252
267 272 275 276 279 281 281 276 271 266 268 273 275 276 278 281 285 290 292 290 292 294 299 298 304 297 293 290 275 282 290 286 292 266 258 233 240 237 243 253 253 253 250
272 274 278 283 285 282 282 282 279 276 273 270 270 271 271 272 274 281 286 287 286 285 286 291 296 294 288 280 275 277 288 277 290 251 238 248 249 241 242 252 256 258 255
282 280 280 281 283 289 295 300 299 293 292 286 280 278 276 275 272 270 273 280 285 285 285 287 292 299 291 288 281 279 279 270 269 268 259 273 263 256 256 254 253 256 257
285 281 280 281 294 298 300 301 307 305 307 304 296 290 285 278 275 270 270 270 272 282 292 293 297 301 301 299 292 284 285 281 273 266 266 268 265 260 263 261 255 256 255
276 275 278 276 293 305 307 305 311 314 316 317 315 311 310 307 296 279 267 267 269 272 280 291 298 303 306 308 303 298 292 284 279 273 273 270 265 261 261 262 264 254 254
262 265 280 283 295 308 314 319 312 319 319 324 330 334 325 322 324 321 295 285 286 287 288 289 292 295 302 308 306 303 294 289 285 281 281 280 271 263 262 258 253 250 254
272 267 273 280 294 310 349 12 359 338 321 323 327 330 343 353 339 332 321 308 299 294 293 290 290 298 307 310 309 304 298 292 288 288 287 285 277 268 265 257 254 249 256
284 247 296 333 336 349 357 5 3 356 336 319 310 306 306 314 320 324 316 313 306 298 293 295 293 289 290 299 304 305 303 299 303 300 289 277 272 267 255 254 256 257 252
289 265 278 265 269 306 314 332 346 338 332 327 325 311 307 313 321 320 322 310 312 296 290 293 297 292 294 298 300 302 301 302 303 309 297 296 304 286 278 273 266 265 262
290 256 235 241 254 279 289 308 328 333 332 322 310 305 309 311 319 321 335 346 346 333 316 310 309 303 304 309 305 300 289 297 306 318 305 317 321 319 309 299 285 270 269
307 238 243 257 263 274 284 314 327 334 337 333 315 306 308 308 308 317 314 330 352 13 20 7 344 337 328 333 332 306 288 290 297 292 293 302 308 304 306 309 289 277 280
273 234 246 261 275 283 302 307 314 326 334 335 320 306 312 317 320 324 319 326 336 335 343 333 311 313 316 316 319 321 334 294 282 283 259 298 310 314 318 301 257 293 293